Mount Low, Australia

3:57 AM AEST on April 27, 2017 (GMT +1000)
Mount Low

Weather History for 94294 - October, 2013

Change the Weather History Date:

Sunday, October 6, 2013

  Actual Average Record
Temperature  
Mean Temperature 76 °F -  
Max Temperature 82 °F 85 °F - ()
Min Temperature 70 °F 70 °F - ()
Cooling Degree Days 11    
Growing Degree Days 26 (Base 50)    
Moisture  
Dew Point 61 °F    
Average Humidity 58    
Maximum Humidity 73    
Minimum Humidity 37    
Precipitation  
Precipitation 0.00 in 0.04 in - ()
Sea Level Pressure  
Sea Level Pressure 29.94 in    
Wind  
Wind Speed 10 mph ()    
Max Wind Speed 16 mph    
Max Gust Speed -    
Visibility 6.8 miles    
Events      
T = Trace of Precipitation, MM = Missing Value Source: Averaged Metar Reports

Daily Weather History Graph

Daily Weather History Graph

Search for Another Location

Airport or City:

Trip Planner

Search our weather history database for the weather conditions in past years. The results will help you decide how hot, cold, wet, or windy it might be!

Date:

Astronomy

Oct. 06, 2013 Rise Set
Actual Time 5:50 AM AEST 6:11 PM AEST
Civil Twilight 5:28 AM AEST 6:33 PM AEST
Nautical Twilight 5:02 AM AEST 6:59 PM AEST
Astronomical Twilight 4:37 AM AEST 7:25 PM AEST
Moon 6:23 AM AEST (10/6) 7:21 PM AEST (10/6)
Length of Visible Light 13h 05m
Length of Day
12h 21m
New Moon, 1% of the Moon is Illuminated
Oct 6
New Moon
Oct 12
First Quarter
Oct 19
Full
Oct 27
Last Quarter
Nov 3
New

Hourly Weather History & Observations

Time (AEST) Temp. Heat Index Dew Point Humidity Pressure Visibility Wind Dir Wind Speed Gust Speed Precip Events Conditions
12:00 AM 75 °F - 64 °F 60% 29.98 in - East 13.8 mph - -  
12:00 AM 75.2 °F - 64.4 °F 69% 29.98 in 6.2 mi East 13.8 mph - N/A   Mostly Cloudy
12:30 AM 75.2 °F - 64.4 °F 69% 29.95 in 6.2 mi East 10.4 mph - N/A   Scattered Clouds
1:00 AM 75 °F - 64 °F 59% 29.98 in - East 11.5 mph - -  
1:00 AM 75.2 °F - 64.4 °F 69% 29.95 in 6.2 mi East 11.5 mph - N/A   Mostly Cloudy
1:30 AM 75.2 °F - 62.6 °F 65% 29.95 in 6.2 mi East 10.4 mph - N/A   Scattered Clouds
2:00 AM 73.4 °F - 60.8 °F 65% 29.95 in 6.2 mi East 10.4 mph - N/A   Unknown
2:30 AM 73.4 °F - 62.6 °F 69% 29.92 in 6.2 mi ESE 8.1 mph - N/A   Scattered Clouds
3:00 AM 72 °F - 63 °F 65% 29.93 in - SE 8.1 mph - -  
3:00 AM 73.4 °F - 62.6 °F 69% 29.92 in 6.2 mi SE 8.1 mph - N/A   Scattered Clouds
3:30 AM 71.6 °F - 62.6 °F 73% 29.92 in 6.2 mi SE 8.1 mph - N/A   Mostly Cloudy
4:00 AM 72 °F - 62 °F 63% 29.94 in - SE 9.2 mph - -  
4:00 AM 71.6 °F - 62.6 °F 73% 29.92 in 6.2 mi SE 9.2 mph - N/A   Mostly Cloudy
4:30 AM 71.6 °F - 62.6 °F 73% 29.92 in 6.2 mi SE 10.4 mph - N/A   Mostly Cloudy
5:00 AM 71.6 °F - 60.8 °F 69% 29.95 in 6.2 mi SE 8.1 mph - N/A   Unknown
5:30 AM 69.8 °F - 60.8 °F 73% 29.95 in 6.2 mi SE 8.1 mph - N/A   Scattered Clouds
6:00 AM 71 °F - 61 °F 63% 29.97 in - SE 10.4 mph - -  
6:00 AM 71.6 °F - 60.8 °F 69% 29.95 in 6.2 mi SE 10.4 mph - N/A   Scattered Clouds
6:30 AM 73.4 °F - 60.8 °F 65% 29.98 in 6.2 mi SE 9.2 mph - N/A   Scattered Clouds
7:00 AM 74 °F - 60 °F 53% 30.01 in - SE 10.4 mph - -  
7:00 AM 73.4 °F - 60.8 °F 65% 29.98 in 6.2 mi SE 10.4 mph - N/A   Scattered Clouds
7:30 AM 75.2 °F - 60.8 °F 61% 30.01 in 6.2 mi SE 9.2 mph - N/A   Scattered Clouds
8:00 AM 77.0 °F - 60.8 °F 57% 30.01 in 6.2 mi East 10.4 mph - N/A   Scattered Clouds
8:30 AM 77.0 °F - 60.8 °F 57% 30.01 in 6.2 mi ENE 11.5 mph - N/A   Mostly Cloudy
9:00 AM 79 °F - 60 °F 41% 30.02 in 12 mi NE 12.7 mph - -   Haze
9:00 AM 78.8 °F - 59.0 °F 51% 30.01 in 6.2 mi NE 12.7 mph - N/A   Scattered Clouds
9:30 AM 78.8 °F - 59.0 °F 51% 30.01 in 6.2 mi ENE 12.7 mph - N/A   Partly Cloudy
10:00 AM 80 °F - 59 °F 38% 30.02 in - NE 12.7 mph - -  
10:00 AM 80.6 °F 81.1 °F 59.0 °F 48% 30.01 in 6.2 mi NE 12.7 mph - N/A   Partly Cloudy
10:30 AM 80.6 °F 81.5 °F 60.8 °F 51% 30.01 in 6.2 mi NE 13.8 mph - N/A   Partly Cloudy
11:00 AM 80.6 °F 81.5 °F 60.8 °F 51% 29.98 in 6.2 mi NE 13.8 mph - N/A   Partly Cloudy
11:30 AM 80.6 °F 81.1 °F 59.0 °F 48% 29.98 in 6.2 mi ENE 13.8 mph - N/A   Partly Cloudy
12:00 PM 80 °F - 59 °F 39% 29.96 in 16 mi NE 15.0 mph - -   Haze
12:00 PM 80.6 °F 81.1 °F 59.0 °F 48% 29.95 in 6.2 mi NE 15.0 mph - N/A   Partly Cloudy
12:30 PM 80.6 °F 81.5 °F 60.8 °F 51% 29.95 in 6.2 mi NE 15.0 mph - N/A   Partly Cloudy
1:00 PM 81 °F - 59 °F 37% 29.94 in - NE 13.8 mph - -  
1:00 PM 80.6 °F 81.1 °F 59.0 °F 48% 29.92 in 6.2 mi NE 13.8 mph - N/A   Partly Cloudy
1:30 PM 80.6 °F 81.1 °F 59.0 °F 48% 29.92 in 6.2 mi ENE 15.0 mph - N/A   Partly Cloudy
2:00 PM 82.4 °F 82.5 °F 59.0 °F 45% 29.89 in 6.2 mi ENE 13.8 mph - N/A   Partly Cloudy
2:30 PM 82.4 °F 82.5 °F 59.0 °F 45% 29.89 in 6.2 mi NE 15.0 mph - N/A   Partly Cloudy
3:00 PM 80 °F - 60 °F 40% 29.89 in 19 mi ENE 15.0 mph - -   Haze
3:00 PM 80.6 °F 81.5 °F 60.8 °F 51% 29.89 in 6.2 mi ENE 15.0 mph - N/A   Partly Cloudy
3:30 PM 80.6 °F 81.5 °F 60.8 °F 51% 29.86 in 6.2 mi NE 13.8 mph - N/A   Partly Cloudy
4:00 PM 79 °F - 60 °F 43% 29.89 in - NE 16.1 mph - -  
4:00 PM 78.8 °F - 60.8 °F 54% 29.86 in 6.2 mi NE 16.1 mph - N/A   Partly Cloudy
4:30 PM 78.8 °F - 60.8 °F 54% 29.86 in 6.2 mi ENE 15.0 mph - N/A   Partly Cloudy
5:00 PM 78.8 °F - 60.8 °F 54% 29.89 in 6.2 mi ENE 15.0 mph - N/A   Partly Cloudy
5:30 PM 77.0 °F - 59.0 °F 54% 29.89 in 6.2 mi ENE 12.7 mph - N/A   Partly Cloudy
6:00 PM 76 °F - 61 °F 50% 29.90 in - ENE 11.5 mph - -  
6:00 PM 75.2 °F - 60.8 °F 61% 29.89 in 6.2 mi ENE 11.5 mph - N/A   Unknown
6:30 PM 75.2 °F - 60.8 °F 61% 29.89 in 6.2 mi ENE 9.2 mph - N/A   Unknown
7:00 PM 75 °F - 59 °F 48% 29.93 in - NE 9.2 mph - -  
7:00 PM 75.2 °F - 59.0 °F 57% 29.92 in 6.2 mi NE 9.2 mph - N/A   Unknown
7:30 PM 73.4 °F - 60.8 °F 65% 29.92 in 6.2 mi NE 8.1 mph - N/A   Unknown
8:00 PM 73.4 °F - 60.8 °F 65% 29.92 in 6.2 mi NE 9.2 mph - N/A   Unknown
8:30 PM 73.4 °F - 60.8 °F 65% 29.95 in 6.2 mi NNE 9.2 mph - N/A   Unknown
9:00 PM 73 °F - 62 °F 61% 29.95 in - NNE 6.9 mph - -  
9:00 PM 73.4 °F - 62.6 °F 69% 29.95 in 6.2 mi NNE 6.9 mph - N/A   Unknown
9:30 PM 73.4 °F - 62.6 °F 69% 29.95 in 6.2 mi NNE 6.9 mph - N/A   Unknown
10:00 PM 72 °F - 62 °F 62% 29.97 in - NNE 5.8 mph - -  
10:00 PM 71.6 °F - 62.6 °F 73% 29.95 in 6.2 mi NNE 5.8 mph - N/A   Unknown
10:30 PM 73.4 °F - 60.8 °F 65% 29.95 in 6.2 mi North 6.9 mph - N/A   Unknown
11:00 PM 71.6 °F - 60.8 °F 69% 29.95 in 6.2 mi North 6.9 mph - N/A   Unknown
11:30 PM 71.6 °F - 60.8 °F 69% 29.95 in 6.2 mi North 6.9 mph - N/A   Unknown